Temperature
22 20 20 21 21 23 23 23 23 24 24 24 23 23 22 22 22 22 21 22 22 23 23 23 22 22 22 21 21 21 20 20 20 19 19 19 19 19 19 19 18 18 18 18
19 20 21 21 22 23 23 23 23 23 24 24 23 22 22 22 22 22 22 22 22 23 23 23 22 22 22 22 21 21 21 20 20 20 19 19 19 19 19 19 18 18 18 18
21 21 22 22 22 23 23 23 23 24 23 23 23 23 22 22 22 23 23 23 23 23 23 23 23 23 22 22 22 21 21 20 20 20 19 19 19 19 19 19 19 18 18 18
21 21 22 22 22 22 22 23 23 24 22 21 23 22 22 21 21 22 23 23 23 23 23 23 23 23 23 23 22 22 21 21 20 20 20 19 19 19 19 19 19 18 18 18
21 22 22 22 22 22 22 23 23 23 22 21 21 21 21 20 22 22 22 23 24 24 24 24 24 24 23 23 22 22 21 21 20 20 20 19 19 19 19 19 19 19 18 18
21 22 23 23 23 23 23 21 20 18 18 20 21 21 21 19 21 22 22 23 24 24 24 24 24 24 23 23 22 22 21 21 20 20 20 19 19 19 19 19 19 19 18 18
22 22 23 23 23 23 22 20 19 20 18 19 19 20 20 20 21 21 22 23 24 24 24 24 24 24 23 23 22 22 22 21 21 20 20 19 19 19 19 19 19 19 19 19
20 20 22 23 23 21 21 20 19 20 19 19 19 20 20 21 21 22 23 23 24 24 24 24 24 24 23 23 23 22 22 21 21 20 20 19 19 19 19 19 19 19 19 19
19 20 22 23 22 21 20 19 19 17 19 19 19 20 20 21 21 21 22 22 23 24 24 24 24 24 24 23 23 22 22 22 21 21 20 20 19 19 19 19 19 19 19 18
19 20 22 22 22 21 20 17 16 17 18 20 21 20 20 21 21 20 20 21 23 24 24 24 24 24 23 23 23 22 22 22 21 21 20 20 20 19 19 19 19 19 19 18
19 20 21 21 22 21 20 18 16 15 17 18 20 20 20 20 19 19 19 21 22 23 24 24 24 24 23 23 23 22 22 22 21 21 20 20 20 19 19 19 19 19 19 18
18 17 18 20 21 21 21 18 17 18 17 16 18 19 20 19 19 19 20 21 22 23 23 23 23 23 23 23 22 22 22 21 21 21 20 20 20 20 19 19 19 19 19 18
17 17 18 20 20 20 20 18 17 15 15 15 18 20 20 19 19 20 20 21 22 22 23 23 23 22 22 22 22 22 22 21 21 21 20 20 20 20 19 19 19 19 18 18
17 16 17 19 19 19 21 19 17 17 16 17 18 19 19 19 18 19 20 21 21 22 22 23 23 22 22 22 22 21 21 21 21 21 20 20 20 19 19 19 18 18 18 18
17 17 18 18 20 20 21 20 19 19 17 18 19 18 19 18 18 19 20 20 21 21 21 22 22 22 22 22 21 21 21 21 21 20 20 20 19 19 19 18 18 18 18 18
15 17 18 19 20 21 21 20 20 20 19 19 19 19 18 19 19 19 19 20 20 21 21 21 22 22 22 22 21 21 21 21 20 20 20 19 19 19 19 18 18 18 18 18
14 16 16 18 19 21 20 20 20 19 19 19 19 19 17 17 18 19 19 19 20 21 21 21 21 21 21 21 21 21 21 20 20 20 20 19 19 19 18 18 18 18 18 17
14 13 13 15 19 19 18 19 19 19 18 18 18 17 17 18 18 19 20 20 20 20 21 21 21 21 21 21 21 20 20 20 20 20 20 19 19 18 18 18 18 17 17 17
13 13 13 14 16 18 19 19 18 18 18 17 17 17 17 18 18 18 19 20 20 20 21 21 21 20 20 20 20 20 20 20 19 19 19 19 18 18 18 18 17 17 17 17
12 12 13 14 17 17 18 19 19 18 18 17 17 16 17 17 17 17 18 19 20 20 20 20 20 20 19 19 19 19 19 19 19 19 19 18 18 18 17 17 17 17 17 17
14 13 13 14 16 16 17 17 18 18 18 18 17 17 17 17 17 18 18 19 19 20 20 20 20 19 19 19 19 19 19 19 19 18 18 18 17 17 17 17 17 16 16 16
13 13 13 13 15 16 17 16 17 17 17 17 17 18 17 18 18 18 18 18 19 19 19 19 19 19 19 18 18 18 18 18 18 17 17 17 17 17 17 17 16 16 16 16
12 12 12 13 14 14 15 16 17 17 17 17 17 17 17 17 17 17 18 18 18 18 18 18 18 18 18 17 17 18 17 17 17 17 17 17 17 16 16 16 16 16 15 15
12 11 11 12 13 14 15 16 17 17 17 17 17 17 17 17 17 17 17 17 17 17 17 17 17 17 17 17 17 17 17 16 16 16 16 16 16 16 16 15 15 15 15 14
12 11 11 12 13 14 15 16 16 16 17 17 17 17 17 17 17 17 16 17 17 17 17 17 17 17 16 16 16 16 16 16 16 16 16 16 15 15 15 15 15 14 14 14
10 11 12 12 13 13 14 16 16 16 16 16 16 16 16 17 16 16 16 16 16 16 16 16 16 16 15 15 15 15 15 15 15 15 15 15 15 15 14 14 14 14 13 13
Wind_Speed
4 5 2 5 5 5 5 4 2 4 2 2 4 5 7 9 10 11 10 10 11 13 9 9 10 10 9 8 8 9 8 7 6 4 3 3 3 2 2 4 6 6 7 7
6 1 5 5 5 4 4 2 1 3 1 2 2 4 4 9 12 12 13 13 14 11 7 9 9 10 11 11 11 10 9 8 7 5 4 3 2 2 2 2 4 6 6 6
5 4 3 5 4 4 3 4 4 2 3 5 3 5 2 4 5 6 8 10 11 12 11 10 11 11 11 12 12 11 10 8 7 6 3 2 2 1 1 1 2 4 6 6
4 4 3 4 4 6 4 5 5 3 3 2 2 2 6 4 5 8 9 10 11 11 11 10 11 11 12 12 10 10 9 8 7 7 6 5 4 4 4 3 3 3 5 6
5 3 4 5 6 8 6 2 4 3 4 2 2 2 8 2 5 9 10 11 11 11 11 12 12 12 11 10 9 9 8 7 7 7 7 6 5 4 3 2 3 3 3 5
5 4 4 6 3 6 6 7 7 7 5 1 3 3 6 4 7 7 7 8 9 9 10 10 9 8 8 8 8 8 8 8 7 7 7 7 7 6 4 4 4 3 2 3
2 3 3 4 3 3 6 7 4 4 3 5 3 3 8 7 8 8 7 7 6 7 8 8 9 9 9 9 9 9 9 8 7 7 7 7 6 6 7 5 5 4 3 3
4 4 5 5 7 7 6 10 8 6 6 4 1 4 7 6 5 4 4 4 4 5 6 8 9 9 9 9 9 9 9 9 8 8 7 5 5 5 5 6 5 5 4 4
7 5 4 3 4 10 8 5 7 7 3 1 4 6 7 4 4 2 0 2 4 5 6 7 7 7 8 9 9 10 10 9 8 8 7 6 6 6 6 5 5 4 4 4
9 4 4 1 6 5 7 10 7 7 6 2 4 4 4 5 4 4 2 1 3 4 4 4 5 6 7 7 7 6 8 8 7 7 7 7 6 6 5 4 5 4 4 3
6 4 3 2 4 7 6 6 6 6 6 7 3 6 5 6 5 4 3 2 2 3 4 5 4 4 4 4 5 5 6 6 6 7 6 5 5 5 5 5 5 5 4 4
6 5 1 4 3 3 6 8 8 7 4 5 5 6 6 5 4 3 2 1 1 3 3 4 4 4 5 4 4 5 5 6 6 6 5 5 5 4 4 4 4 4 3 3
8 7 3 3 4 2 4 4 5 7 6 6 5 6 4 2 1 0 1 2 2 3 4 5 5 5 5 4 3 4 4 4 4 5 5 4 4 4 5 4 3 3 3 3
7 5 7 9 7 5 4 4 6 7 5 5 6 6 4 2 2 1 2 3 4 4 5 5 4 4 4 4 3 3 3 3 4 5 5 4 4 4 4 3 3 2 2 2
6 5 4 3 3 4 4 5 7 6 8 9 8 7 7 6 4 2 2 4 5 5 5 4 4 3 3 3 3 3 2 2 3 5 5 4 3 3 2 2 2 2 2 2
4 6 4 1 1 3 3 3 5 5 5 5 4 5 5 2 2 2 2 4 4 3 3 3 3 3 3 3 3 3 3 2 3 4 4 3 3 3 3 2 2 2 2 2
4 6 5 2 1 4 0 3 4 3 3 6 7 6 2 2 3 4 3 4 4 3 3 4 2 2 1 1 2 3 3 3 3 3 3 3 3 3 3 3 2 2 1 1
7 6 5 4 4 4 6 3 3 5 2 3 4 4 5 5 3 2 2 4 4 3 3 3 3 2 2 2 2 3 3 3 3 3 2 2 3 3 2 3 2 1 1 1
4 7 5 5 4 2 4 1 3 4 2 2 4 4 3 4 4 2 1 2 3 4 3 3 3 3 3 2 2 4 4 4 3 3 2 2 3 3 2 2 2 1 2 1
7 6 6 5 5 6 6 3 1 4 2 3 5 6 6 6 3 3 1 2 3 3 4 4 4 4 3 2 3 5 4 4 3 2 2 2 3 3 2 2 1 1 2 2
4 5 5 4 3 5 6 5 1 5 7 3 5 6 7 5 4 4 4 3 4 4 4 5 5 4 3 2 4 4 4 2 1 2 3 4 3 3 3 2 2 2 2 3
5 5 4 5 4 6 3 1 4 5 2 1 3 4 5 4 4 6 5 4 5 5 4 4 4 4 2 3 4 4 3 2 3 4 4 4 3 2 3 3 3 3 3 3
4 6 6 7 6 4 2 3 3 2 2 1 3 4 6 6 5 4 4 4 4 4 4 3 4 4 3 3 4 4 2 2 4 5 4 4 4 3 3 4 3 3 3 3
1 2 3 1 3 3 3 1 2 0 1 1 3 5 6 6 6 5 4 4 4 3 3 3 4 5 3 3 4 3 2 3 5 5 4 4 4 4 4 4 3 3 3 3
3 3 3 1 3 2 3 2 1 0 2 3 4 4 5 7 6 5 5 4 4 4 3 4 4 4 3 3 3 3 3 4 5 5 5 4 4 5 5 5 5 3 3 2
3 5 6 6 6 4 4 3 1 2 2 3 4 3 3 5 5 5 4 4 4 4 4 4 4 4 2 2 2 2 2 4 6 5 4 4 4 4 4 5 6 11 8 9
Wind_Direction
46 75 171 196 171 153 138 132 190 245 248 170 216 240 219 197 194 197 198 203 210 223 215 189 187 183 178 180 182 187 187 184 168 160 166 168 191 196 201 208 201 194 193 191
49 272 219 161 146 124 120 113 266 296 336 165 233 272 240 200 204 202 201 206 212 218 204 194 186 182 184 187 190 190 193 189 183 181 169 160 158 184 198 204 204 203 200 199
167 225 173 151 151 148 175 182 208 229 11 32 66 340 276 234 227 225 219 214 215 213 204 198 195 191 189 193 193 195 195 190 184 170 140 112 96 78 135 198 212 215 206 204
212 242 173 161 183 156 226 215 189 166 98 325 71 271 280 250 246 232 228 217 217 214 199 195 198 195 196 198 191 188 187 185 180 170 170 172 181 195 211 204 208 217 209 207
223 207 172 192 204 169 201 145 132 119 128 71 22 157 283 309 252 245 234 224 220 210 198 196 199 198 196 192 186 187 182 183 184 185 185 186 197 203 201 198 204 216 219 217
226 232 203 203 190 166 138 74 57 49 76 112 233 169 276 246 233 250 240 227 219 205 198 197 191 183 183 180 181 183 182 192 189 190 190 196 201 195 191 205 209 217 224 227
288 274 240 179 119 91 107 96 48 15 20 246 270 189 250 258 247 233 234 234 216 199 194 192 183 180 180 180 183 184 186 193 186 186 193 201 206 199 204 209 210 210 215 227
169 264 233 189 171 165 163 140 155 180 204 264 320 228 257 278 280 255 233 220 184 179 184 192 187 181 183 187 188 187 188 189 182 186 199 203 211 213 216 212 208 211 215 224
172 240 281 227 169 137 133 150 153 128 144 128 285 292 305 324 346 6 119 152 165 175 188 191 186 182 182 187 194 191 190 190 187 188 187 201 210 212 214 212 210 217 218 223
156 207 285 277 86 43 134 140 108 120 140 204 294 288 263 288 308 329 339 226 203 170 168 168 173 180 184 183 184 180 186 192 188 186 191 205 205 209 209 202 210 216 218 217
141 156 315 56 161 162 110 96 105 110 141 150 202 267 238 240 253 259 262 246 200 170 160 155 161 164 157 148 159 170 179 181 182 187 187 200 200 204 201 204 213 215 215 211
144 125 214 267 277 183 144 153 144 146 174 156 158 259 280 245 250 236 241 232 160 150 141 136 129 118 112 127 152 172 184 187 189 185 183 196 197 193 197 208 213 205 206 207
141 123 102 358 350 37 103 124 129 120 116 144 157 255 313 347 331 282 123 103 108 121 113 107 110 116 126 140 150 163 169 176 178 173 179 186 188 191 202 206 202 197 200 199
122 117 158 184 203 179 141 137 139 123 139 173 205 228 289 303 305 341 98 106 104 108 111 110 118 132 143 145 132 133 138 146 154 158 167 176 188 195 204 197 188 187 180 178
112 131 160 190 192 158 147 156 160 158 168 170 205 208 235 234 230 216 139 114 108 110 114 120 126 128 126 125 117 124 139 144 142 146 159 176 178 170 165 159 162 161 158 169
92 131 133 83 22 144 118 142 162 162 162 174 172 229 243 231 139 120 124 129 126 131 128 119 111 113 125 135 134 136 141 145 143 147 155 155 148 141 144 143 143 146 152 150
104 119 118 175 287 88 252 219 171 163 175 165 188 220 189 158 169 172 162 150 150 145 130 125 121 125 122 129 133 140 144 132 133 140 139 129 138 135 137 134 127 148 163 142
122 109 114 124 115 184 239 266 158 144 172 192 188 191 179 176 161 126 134 155 151 138 130 132 121 99 77 78 90 100 103 113 119 115 113 122 126 127 127 121 128 150 139 139
116 124 108 116 146 249 294 182 154 154 249 224 178 169 147 118 88 50 68 129 152 142 137 130 116 107 90 87 104 103 102 110 113 120 131 130 132 126 124 133 150 167 148 144
55 85 108 115 136 209 236 267 257 126 264 240 178 170 158 128 142 225 192 102 104 104 109 115 110 103 103 90 100 105 103 104 114 138 135 115 113 115 123 140 140 132 138 141
58 58 104 133 164 250 258 296 102 158 230 218 184 180 169 173 192 166 138 114 113 109 109 106 107 105 105 103 104 103 101 108 126 114 101 91 97 118 126 113 100 97 116 114
149 137 155 139 160 237 291 36 169 216 255 163 172 171 156 146 128 131 134 126 113 105 97 98 100 89 77 89 102 97 96 102 99 98 93 91 97 109 109 106 105 106 115 119
169 178 180 182 201 240 275 235 261 220 197 189 164 150 140 137 141 137 131 120 106 99 95 91 98 86 59 59 93 104 108 109 104 95 88 84 84 86 93 111 118 111 113 123
243 132 136 202 260 277 294 305 328 271 193 164 152 148 145 149 147 137 140 129 123 110 106 98 95 86 60 48 68 96 113 112 107 100 91 84 82 79 77 82 94 111 119 123
217 150 137 221 268 324 321 294 269 36 97 103 105 119 140 144 148 155 153 145 141 131 118 107 102 94 73 55 60 71 94 107 107 102 98 93 88 91 86 76 58 64 59 96
208 179 172 211 215 194 242 264 228 157 151 144 131 118 128 146 151 152 155 155 147 140 129 117 110 105 90 71 62 59 92 109 114 108 102 101 101 99 105 101 76 52 53 59
Height
1503 1509 1516 1514 1513 1515 1517 1521 1525 1521 1514 1516 1519 1519 1516 1516 1519 1521 1523 1525 1526 1527 1530 1534 1537 1540 1542 1545 1547 1549 1551 1553 1555 1556 1557 1559 1560 1561 1562 1564 1564 1565 1566 1567
1510 1513 1509 1509 1511 1513 1517 1522 1523 1519 1514 1516 1520 1520 1515 1515 1515 1516 1519 1521 1523 1525 1529 1532 1535 1537 1540 1542 1545 1547 1549 1551 1553 1555 1556 1558 1560 1561 1561 1562 1563 1564 1565 1567
1510 1509 1505 1508 1512 1515 1518 1521 1521 1521 1518 1517 1520 1525 1519 1515 1515 1517 1518 1519 1521 1523 1526 1529 1532 1534 1537 1540 1542 1545 1547 1549 1551 1553 1555 1557 1558 1559 1560 1560 1562 1563 1564 1565
1507 1504 1505 1508 1511 1513 1521 1513 1515 1518 1526 1534 1528 1542 1524 1518 1516 1515 1515 1516 1517 1519 1522 1525 1528 1531 1534 1537 1540 1543 1545 1548 1550 1552 1553 1555 1556 1556 1558 1559 1560 1562 1563 1564
1506 1503 1504 1508 1507 1508 1512 1509 1514 1518 1526 1535 1533 1541 1533 1520 1519 1513 1511 1512 1513 1515 1518 1521 1524 1527 1531 1535 1538 1540 1543 1546 1548 1550 1552 1553 1554 1555 1557 1558 1559 1560 1561 1562
1502 1499 1500 1501 1500 1503 1506 1514 1521 1530 1536 1548 1537 1542 1538 1525 1516 1510 1507 1508 1509 1511 1515 1518 1522 1525 1529 1533 1535 1538 1541 1543 1546 1548 1550 1551 1553 1554 1555 1556 1557 1558 1559 1560
1504 1500 1497 1496 1502 1505 1509 1527 1547 1549 1557 1554 1538 1539 1535 1514 1508 1506 1505 1505 1506 1509 1512 1515 1518 1522 1526 1529 1533 1535 1538 1540 1543 1545 1547 1549 1551 1552 1553 1555 1555 1556 1557 1558
1513 1514 1498 1495 1499 1506 1511 1521 1545 1555 1558 1552 1539 1539 1524 1508 1505 1503 1503 1503 1505 1508 1511 1513 1516 1520 1523 1527 1530 1533 1535 1537 1539 1542 1544 1545 1548 1550 1551 1552 1553 1554 1555 1556
1512 1511 1494 1492 1493 1499 1512 1520 1522 1541 1546 1549 1544 1533 1517 1505 1504 1503 1503 1503 1504 1506 1509 1512 1515 1518 1521 1524 1527 1530 1532 1535 1537 1539 1541 1544 1545 1547 1548 1550 1551 1552 1553 1554
1500 1507 1496 1492 1493 1499 1502 1513 1529 1541 1554 1555 1543 1537 1530 1513 1508 1505 1503 1502 1503 1504 1507 1510 1513 1516 1519 1522 1525 1527 1530 1532 1535 1537 1539 1540 1542 1544 1546 1547 1548 1550 1551 1552
1494 1505 1502 1497 1499 1504 1508 1516 1526 1539 1540 1553 1552 1541 1514 1511 1507 1505 1503 1503 1503 1505 1507 1509 1512 1515 1518 1521 1523 1526 1528 1531 1533 1535 1536 1539 1540 1542 1543 1545 1546 1547 1548 1549
1494 1506 1513 1504 1496 1494 1498 1508 1519 1532 1541 1544 1547 1539 1506 1505 1504 1503 1503 1503 1504 1505 1508 1510 1513 1516 1518 1520 1523 1525 1527 1529 1531 1533 1535 1537 1538 1540 1541 1542 1544 1545 1546 1546
1492 1505 1518 1514 1510 1501 1501 1506 1511 1521 1536 1545 1544 1531 1505 1504 1503 1503 1503 1503 1504 1506 1508 1511 1514 1516 1518 1521 1523 1524 1526 1528 1530 1531 1533 1535 1536 1538 1539 1540 1541 1542 1543 1544
1484 1502 1511 1518 1512 1504 1503 1505 1510 1517 1532 1537 1532 1522 1510 1506 1505 1504 1504 1504 1505 1507 1509 1512 1514 1516 1519 1521 1523 1524 1526 1527 1529 1530 1531 1533 1534 1536 1537 1538 1539 1539 1540 1541
1484 1499 1499 1499 1497 1497 1498 1501 1506 1509 1516 1523 1519 1517 1509 1505 1504 1504 1504 1505 1506 1508 1510 1512 1515 1516 1518 1520 1522 1524 1525 1527 1527 1528 1529 1531 1533 1534 1535 1536 1537 1537 1537 1538
1487 1497 1498 1500 1497 1496 1499 1500 1502 1504 1508 1510 1510 1511 1502 1503 1504 1504 1505 1505 1506 1508 1510 1512 1514 1516 1518 1519 1520 1522 1524 1525 1526 1527 1528 1529 1531 1532 1533 1534 1534 1535 1536 1536
1492 1497 1506 1509 1501 1499 1509 1502 1502 1503 1503 1505 1509 1506 1502 1502 1503 1503 1505 1506 1506 1508 1510 1512 1514 1516 1518 1519 1520 1522 1523 1524 1525 1526 1526 1528 1529 1530 1531 1531 1533 1533 1534 1534
1491 1500 1509 1513 1507 1518 1508 1496 1496 1499 1501 1500 1499 1499 1499 1500 1501 1503 1505 1506 1507 1508 1510 1512 1514 1516 1518 1519 1520 1521 1522 1523 1524 1524 1525 1526 1527 1528 1529 1530 1531 1532 1532 1532
1486 1496 1510 1518 1518 1513 1502 1496 1497 1500 1502 1497 1498 1498 1499 1500 1502 1505 1505 1506 1507 1509 1510 1512 1514 1516 1518 1519 1520 1521 1521 1522 1522 1523 1524 1525 1526 1527 1527 1528 1529 1530 1531 1531
1490 1494 1507 1516 1517 1520 1504 1494 1493 1497 1504 1496 1495 1497 1498 1500 1506 1506 1505 1506 1507 1509 1511 1512 1514 1516 1518 1519 1519 1520 1520 1521 1521 1522 1522 1523 1524 1525 1526 1526 1527 1528 1529 1529
1499 1503 1509 1514 1514 1510 1497 1493 1493 1507 1503 1493 1493 1495 1497 1499 1501 1502 1504 1505 1507 1509 1511 1512 1514 1515 1516 1518 1518 1519 1519 1520 1520 1521 1521 1522 1523 1524 1524 1525 1526 1527 1527 1528
1501 1506 1510 1514 1514 1511 1493 1493 1497 1497 1492 1491 1492 1494 1496 1498 1500 1501 1503 1504 1506 1508 1510 1512 1513 1514 1515 1516 1517 1517 1518 1519 1519 1520 1520 1521 1522 1523 1523 1524 1524 1525 1526 1526
1498 1499 1502 1503 1504 1495 1493 1493 1492 1492 1491 1492 1492 1494 1496 1498 1500 1501 1503 1504 1506 1508 1510 1511 1512 1513 1515 1516 1516 1517 1518 1518 1518 1519 1520 1520 1521 1522 1522 1523 1523 1524 1524 1525
1495 1495 1497 1498 1495 1492 1492 1491 1491 1491 1491 1491 1492 1494 1496 1497 1499 1502 1503 1505 1507 1509 1510 1511 1512 1513 1514 1515 1516 1517 1517 1517 1518 1518 1519 1519 1520 1521 1521 1522 1523 1523 1524 1524
1493 1494 1496 1496 1493 1492 1491 1491 1491 1492 1492 1492 1493 1494 1496 1497 1499 1501 1503 1504 1506 1508 1509 1511 1512 1513 1514 1515 1516 1516 1516 1516 1517 1517 1518 1519 1519 1520 1520 1521 1522 1523 1524 1524
1490 1492 1493 1494 1490 1491 1491 1491 1491 1491 1492 1492 1493 1494 1496 1497 1499 1501 1502 1504 1505 1506 1508 1509 1511 1512 1514 1514 1515 1515 1515 1516 1516 1517 1517 1518 1519 1519 1520 1521 1522 1523 1524 1524